Preview of NWS' New Version of Forecast
This preview is not operational and should not be used for support decisions.
Latest weather observations around

Louisville, Bowman Field Airport (KLOU)

Using English Units (Switch to International System of Units)
Date/ Time (EDT) Wind (mph) Vis. (mi) Weather Sky Cond. Temp (°F) Rel. Humidity Wind Chill (°F) Heat Index (°F) Pressure Precip. (in)
Air Dwpt 6 hour Altimeter (inHg) Sea level (inHg) 1 hr 3 hr 6 hr
Max Min
Mar 26 15:53 5 10 Clear CLR 50 16     26%     30.34 30.35      
Mar 26 14:53 7 10 Clear CLR 49 15     26% 46   30.35 30.36      
Mar 26 13:53 ENE 9 10 Clear CLR 47 12     24% 43   30.37 30.38      
Mar 26 12:53 N 11 10 Clear CLR 45 13     27% 39   30.38 30.39      
Mar 26 11:53 NNE 11 10 Clear CLR 43 13     29% 37   30.39 30.39      
Mar 26 10:53 ENE 13 10 Clear CLR 40 9     27% 32   30.38 30.39      
Mar 26 09:53 NE 11 10 Clear CLR 37 10     32% 29   30.37 30.37      
Mar 26 08:53 NNE 9 10 Clear CLR 33 15     47% 25   30.35 30.36      
Mar 26 07:53 N 6 10 Clear CLR 31 15     51% 25   30.34 30.35      
Mar 26 06:53 NNE 5 10 Clear CLR 31 16     53% 26   30.32 30.33      
Mar 26 05:53 N 5 10 Clear CLR 32 17     54% 27   30.3 30.31      
Mar 26 04:53 N 8 10 Clear CLR 34 18     51% 27   30.28 30.29      
Mar 26 03:53 N 5 10 Clear CLR 35 19     52% 31   30.28 30.28      
Mar 26 02:53 NNW 3 10 Clear CLR 36 18     48% 33   30.26 30.27      
Mar 26 01:53 N 5 10 Clear CLR 38 18     44% 34   30.26 30.26      
Mar 26 00:53 N 6 10 Clear CLR 39 22     50% 35   30.24 30.24      
Mar 25 23:53 N 10 10 Clear CLR 41 27     57% 35   30.22 30.22      
Mar 25 22:53 N 7 10 Clear CLR 42 35     76% 38   30.2 30.2      
Mar 25 21:53 NNW 5 10 Clear CLR 43 37     79% 40   30.18 30.18      
Mar 25 20:53   10 Cloudy OVC035 45 38     76%     30.15 30.15      
Mar 25 19:53 N 9 10 Cloudy FEW025 OVC055 46 38     73% 41   30.13 30.13      
Mar 25 19:44 N 7 10 Cloudy SCT024 OVC055 46 38     73% 42   30.12        
Mar 25 18:53 N 13 10 Cloudy OVC020 46 38     73% 40   30.11 30.11      
Mar 25 17:53 N 8 10 Cloudy OVC016 46 39     76% 42   30.08 30.08      
Mar 25 17:30 N 16 10 Cloudy OVC015 46 39     76% 39   30.07        
Mar 25 16:53 NNE 13 10 Cloudy OVC014 47 40     76% 41   30.05 30.05      
Mar 25 15:53 N 13 10 Cloudy OVC012 47 41     80% 41   30.03 30.03      
Mar 25 14:55 NNE 14 10 Cloudy OVC012 49 44     83% 44   30.02        
Mar 25 14:53 NNE 14 10 Cloudy OVC009 49 44     83% 44   30.02 30.02      
Mar 25 14:00 N 13 10 Cloudy OVC009 49 45     86% 44   30.01        
Mar 25 13:53 N 14 10 Cloudy BKN007 OVC012 49 45     86% 44   30 30 0   0
Mar 25 13:44 N 10 10 Light Rain BKN007 OVC012 49 45     86% 45   30   0    
Mar 25 13:26 NNE 11 1.75 Light Rain and Fog/Mist OVC007 50 46     86%     29.99   0    
Mar 25 13:05 NNE 9 1.75 Light Rain and Fog/Mist OVC005 49 47     93% 45   29.99   0    
Mar 25 12:53 N 11 1.75 Light Rain and Fog/Mist OVC004 49 46     90% 44   29.99 29.99 0    
Mar 25 12:38 N 8 2 Fog/Mist OVC004 49 47     93% 45   29.99        
Mar 25 12:30 N 9 1.75 Fog/Mist OVC004 49 47     93% 45   29.98        
Mar 25 12:16 N 9 1.5 Fog/Mist OVC005 51 49     92%     29.98        
Mar 25 12:09 NNW 9 1.5 Fog/Mist BKN003 OVC009 52 50     93%     29.97        
Mar 25 12:00 NW 9 2.5 Fog/Mist SCT003 BKN006 OVC016 52 50     93%     29.97        
Mar 25 11:53 NNW 9 5 Fog/Mist BKN008 OVC016 53 50     89%     29.97 29.96      
Mar 25 11:27 NNW 5 6 Fog/Mist BKN009 BKN012 OVC017 54 50     86%     29.96        
Mar 25 11:19 W 3 6 Fog/Mist BKN011 OVC017 54 50     86%     29.96        
Mar 25 11:01 Calm 6 Fog/Mist FEW010 OVC017 54 50     86%     29.95        
Mar 25 10:53 Calm 6 Fog/Mist OVC013 53 50     89%     29.95 29.95      
Mar 25 09:53 Calm 4 Fog/Mist OVC010 52 50     93%     29.95 29.94      
Mar 25 09:49 Calm 4 Fog/Mist OVC010 52 50     94%     29.95        
Mar 25 09:37 Calm 3 Fog/Mist OVC009 52 50     93%     29.95        
Mar 25 08:53 Calm 4 Fog/Mist OVC012 51 49     92%     29.94 29.94      
Mar 25 08:40 Calm 4 Clear   51 49     92%     29.94        
Mar 25 07:53 Calm 7 Clear   51 48     89%     29.93 29.92      
Mar 25 07:32 SSE 3 7 Cloudy SCT008 OVC060 50 48     93%     29.92        
Mar 25 06:53 SSE 5 9 Mostly Clear FEW110 50 48     93%     29.9 29.9 0    
Mar 25 05:53 ESE 5 5 Light Rain and Fog/Mist SCT031 OVC060 51 49     92%     29.91 29.91 0    
Mar 25 04:53 SSE 5 10 Cloudy OVC046 52 49     89%     29.92 29.92 0 0  
Mar 25 03:53 3 6 Light Rain and Fog/Mist OVC070 52 49     89%     29.95 29.94 0    
Mar 25 02:53 SSE 7 9 Light Rain FEW060 BKN080 OVC100 51 48     89%     29.99 29.98 0    
Mar 25 01:53 E 7 7 Light Rain OVC070 51 48     89%     30.02 30.01 0   0
Mar 25 00:53 WNW 7 7 Cloudy BKN060 OVC090 54 45     72%     30.01 30.01 0    
Mar 24 23:53 SE 5 10 Cloudy OVC055 57 43     59%     29.99 29.99      
Mar 24 22:53 SSE 5 10 Mostly Cloudy BKN065 55 45     69%     30.01 30.01      
Mar 24 21:53 Calm 10 Partly Cloudy SCT070 53 46     77%     30.03 30.03      
Mar 24 20:53 Calm 10 Mostly Cloudy SCT065 BKN095 56 45     67%     30.04 30.04      
Mar 24 19:53 SE 5 10 Cloudy OVC045 56 47     72%     30.04 30.04     0
Mar 24 18:53 S 3 10 Cloudy OVC055 56 47     72%     30.05 30.05      
Mar 24 17:53 SSE 8 10 Cloudy OVC060 56 47     72%     30.05 30.05 0    
Mar 24 16:53 ESE 6 10 Cloudy OVC060 54 46     74%     30.08 30.08 0 0  
Mar 24 15:53 SE 3 10 Cloudy OVC075 53 45     74%     30.11 30.11 0    
Mar 24 14:53 W 3 7 Light Rain OVC060 55 43     64%     30.14 30.14 0    
Mar 24 13:53 WSW 9 10 Light Rain BKN070 OVC085 59 31     34%     30.16 30.16 0   0
Mar 24 12:53 SSW 6 10 Cloudy OVC095 58 26     29%     30.16 30.16      
Mar 24 11:53 Calm 10 Mostly Cloudy BKN100 56 23     28%     30.18 30.18      
Mar 24 10:53 S 5 10 Clear CLR 52 23     32%     30.2 30.2      
Mar 24 09:53 Calm 10 Clear CLR 49 23     36%     30.2 30.2      
Mar 24 08:53 ESE 5 10 Clear CLR 46 27     47% 44   30.19 30.19      
Mar 24 07:53 Calm 10 Clear CLR 43 28     55%     30.19 30.19      
Mar 24 06:53 SSE 5 10 Clear CLR 45 23     42% 43   30.19 30.19      
Mar 24 05:53 E 7 10 Clear CLR 44 25     47% 40   30.18 30.18      
Mar 24 04:53 E 7 10 Clear CLR 42 28     57% 38   30.2 30.2      
Mar 24 03:53 E 3 10 Clear CLR 46 22     38% 45   30.23 30.23      
Mar 24 02:53 SSW 3 10 Clear CLR 45 21     38% 44   30.24 30.24      
Mar 24 01:53 E 8 10 Clear CLR 49 19     30% 45   30.22 30.22      
Mar 24 00:53 ESE 3 10 Clear CLR 47 25     42% 46   30.23 30.23      
Mar 23 23:53 Calm 10 Clear CLR 46 24     42%     30.25 30.26      
Mar 23 22:53 Calm 10 Clear CLR 47 21     35%     30.26 30.27      
Mar 23 21:53 Calm 10 Clear CLR 47 20     34%     30.26 30.27      
Mar 23 20:53 ESE 3 10 Clear CLR 54 15     21%     30.26 30.26      
Mar 23 19:53 ESE 5 10 Clear CLR 55 16     21%     30.25 30.26      
Mar 23 18:53 Calm 10 Clear CLR 57 17     21%     30.25 30.26      
Mar 23 17:53 S 7 10 Clear CLR 57 20     23%     30.26 30.26      
Mar 23 16:53 Calm 10 Clear CLR 57 18     21%     30.27 30.28      
Mar 23 15:53 Calm 10 Clear CLR 57 23     27%     30.29 30.29      
May 15 07:53 Calm 10 Mostly Clear FEW065 75 68     79%   76 29.96 29.94      
May 15 04:53 SW 3 10 Clear CLR 75 67     76%   76 29.91 29.89      
May 14 19:53 SSW 8 10 Mostly Clear FEW070 86 65     50%   88 29.88 29.86      
May 14 18:53 SSW 10 10 Mostly Clear FEW065 88 64     45%   89 29.89 29.88      
May 14 12:53 WNW 11 10 Mostly Clear FEW055 87 66     50%   89 30.02 30      
May 14 11:53 NW 10 10 Partly Cloudy SCT065 86 66     51%   88 30.03 30.01      
May 14 00:53 S 6 10 Clear CLR 74 66     76%   75 29.99 29.97      
May 12 16:53 WSW 8 10 Clear   87 65     48%   89 30.04 30.02      
May 12 11:53 SW 9 10 Clear CLR 83 64     53%   84 30.09 30.08      
May 12 07:53 SSW 5 10 Clear CLR 73 62     68%   73 30.07 30.05      
May 12 04:53 S 7 10 Clear CLR 71 61     70%   71 30.02 30.01      
May 12 03:53 S 7 10 Clear CLR 72 61     68%   72 30.02 30      
May 12 01:53 SSW 7 10 Clear CLR 74 62     66%   74 30.01 29.99      
May 11 23:53 S 3 10 Clear CLR 75 62     64%   75 30 29.98      
May 11 16:53 SW 13 10 Clear CLR 87 61     42%   87 29.96 29.94      
Jun 12 07:53 S 5 10 Mostly Cloudy BKN070 76 69     79%   77 30.13 30.11      
Jun 12 05:53 Calm 10 Partly Cloudy SCT050 SCT070 72 66     82%   73 30.11 30.09      
Jun 11 17:53 S 9 10 Mostly Clear FEW070 86 63     46%   87 30.08 30.06      
Jun 11 06:53 Calm 10 Clear CLR 67 61     81%     30.12 30.1      
Jun 09 03:53 Calm 10 Clear CLR 57 54     89%     29.91 29.9      
Jun 09 00:53 Calm 10 Clear CLR 60 54     80%     29.92 29.91      
Jun 08 15:53 3 10 Partly Cloudy SCT047 74 53     48%   73 29.95 29.94      
Jun 08 14:53 Calm 10 Cloudy OVC060 71 52     51%   70 29.97 29.96      
Jun 06 09:53 ENE 8 10 Clear CLR 68 57     68%     29.93 29.92      
Jun 05 20:07 SSW 7 10 Clear CLR 68 65     90%     29.77        
Notice The following observation data may not be complete
Jun 05 19:19 5 5 Thunderstorms and Rain SCT026 BKN039 OVC100   63      %     29.72   0